www.pogodaiklimat.ru

Погода и климат >> Архив погоды >> Южная Африка >> Скукуза


ПОГОДА в Скукузе

  • Прогноз погоды в Скукузе
  • Монитор погоды в Скукузе

АРХИВ ПОГОДЫ в Скукузе

Время (UTC), дата Ветер
(напр.,м/с)
 
Видим.   Явления Облачность Т
(С)
Тd
(С)
f
(%)
Тe
(С)
Тes
(С)
Комфортность P
(гПа)
Po
(гПа)
Тmin
(С)
Tmax
(С)
R
(мм)
R24
(мм)
S
(см)
09 19.08 С 2 н/о н/о +28.1 +10.1 32 +28 +28 жарко 989.1 +7.4 +28.1
12 19.08 СВ 2 н/о н/о +34.1 +6.0 17 +32 +32 жарко 985.5 +7.4 +34.2
15 19.08 СВ 2 н/о н/о +32.2 +5.2 18 +30 +30 жарко 984.9 +32.2 +35.1
18 19.08 Ю 2 н/о н/о +19.6 +5.4 39 +21 +21 комфорт 987.7 +18.5 +35.1
21 19.08 Ю 3 н/о н/о +19.5 +14.8 74 +22 +22 комфорт 992.3 +18.5 +35.1
00 20.08 Ю 2 н/о н/о +18.8 +14.5 76 +20 +20 993.4 +18.3 +35.1
03 20.08 Ю 4 н/о н/о +18.5 +10.6 60 +19 +19 994.1 +18.3 +35.1
06 20.08 Ю 4 н/о н/о +18.6 +10.7 60 +19 +19 996.5 +18.1
09 20.08 Ю 3 н/о н/о +20.4 +11.1 55 +22 +22 комфорт 997.4 +18.1 +20.5
12 20.08 Ю 3 н/о н/о +21.6 +9.9 47 +23 +23 комфорт 996.1 +18.1 +21.9
15 20.08 Ю 3 н/о н/о +21.4 +10.0 48 +23 +23 комфорт 996.2 +21.4 +22.0
18 20.08 ЮВ 2 н/о н/о +17.8 +11.2 65 +18 +18 998.1 +16.5 +22.0
21 20.08 Ю 1 н/о н/о +11.1 +8.3 83 +11 +11 999.0 +11.1 +22.0
00 21.08 штиль 0 н/о н/о +8.8 +6.9 88 +8 +8 999.1 +8.8 +22.0
03 21.08 штиль 0 н/о н/о +5.9 +4.2 89 +5 +5 998.9 +5.9 +22.0
06 21.08 СЗ 1 н/о н/о +13.7 +9.1 74 +14 +14 1000.2 +5.1
09 21.08 Ю 3 н/о н/о +22.6 +9.2 42 +24 +24 комфорт 999.7 +5.1 +23.4
12 21.08 ЮВ 2 н/о н/о +24.7 +8.4 35 +25 +25 комфорт 997.1 +5.1 +25.9
15 21.08 ЮВ 3 н/о н/о +23.7 +8.3 37 +24 +24 комфорт 996.4 +22.8 +25.9
18 21.08 ЮВ 1 н/о н/о +17.6 +10.7 64 +19 +19 997.7 +17.5 +25.9
21 21.08 З 1 н/о н/о +11.0 +7.1 77 +11 +11 998.6 +11.0 +25.9
00 22.08 З 1 н/о н/о +11.0 +7.8 81 +11 +11 997.5 +9.2 +25.9
03 22.08 штиль 0 н/о н/о +9.5 +7.1 85 +9 +9 997.0 +9.1 +25.9
06 22.08 штиль 0 н/о н/о +14.8 +9.2 69 +15 +15 997.8 +7.6
09 22.08 Ю 1 н/о н/о +23.2 +8.6 39 +24 +24 комфорт 996.6 +7.6 +23.7
12 22.08 В 3 н/о н/о +27.0 +7.7 29 +27 +27 жарко 992.9 +7.6 +27.0
15 22.08 В 2 н/о н/о +25.8 +8.1 32 +26 +26 жарко 992.1 +25.8 +27.7
18 22.08 штиль 0 н/о н/о +13.8 +4.9 55 +14 +14 993.9 +13.8 +27.7
21 22.08 В 1 н/о н/о +10.2 +3.9 65 +10 +10 994.6 +10.1 +27.7
00 23.08 штиль 0 н/о н/о +7.0 +2.7 74 +6 +6 994.2 +7.0 +27.7
03 23.08 З 1 н/о н/о +6.1 +3.4 83 +5 +5 994.1 +6.0 +27.7
06 23.08 З 1 н/о н/о +13.9 +6.8 62 +14 +14 995.7 +5.3
09 23.08 ЮЗ 1 н/о н/о +24.1 +10.5 42 +25 +25 комфорт 994.5 +5.3 +24.4
09 24.08 ЮВ 1 н/о н/о +24.5 +9.8 39 +25 +25 комфорт 995.3 +4.8 +24.5
12 24.08 СВ 2 н/о н/о +29.3 +7.5 25 +28 +28 жарко 991.7 +4.8 +29.4
18 24.08 ЮЗ 1 н/о н/о +15.0 +4.1 48 +16 +16 992.0 +15.0 +30.2
21 24.08 Ю 1 н/о н/о +10.4 +3.4 62 +10 +10 992.8 +10.4 +30.2
00 25.08 штиль 0 н/о н/о +7.9 +2.5 69 +7 +7 991.8 +7.9 +30.2
03 25.08 З 1 н/о н/о +6.4 +2.1 74 +5 +5 991.1 +6.4 +30.2
06 25.08 штиль 0 н/о н/о +15.6 +5.0 49 +16 +16 992.0 +5.8
09 25.08 С 3 н/о н/о +29.3 +9.7 30 +29 +29 жарко 990.2 +5.8 +29.3
12 25.08 С 5 н/о н/о +32.5 +6.3 19 +30 +30 жарко 986.4 +5.8 +32.8
15 25.08 СВ 3 н/о н/о +30.9 +4.2 18 +29 +29 жарко 985.2 +30.9 +33.2
18 25.08 С 1 н/о н/о +21.2 +6.1 37 +22 +22 комфорт 986.2 +21.2 +33.2

 

Местоположение метеостанции Скукуза (Южная Африка): широта -24.98 долгота 31.60 высота над уровнем моря 271 м.

В архиве по умолчанию представлена погода в Скукузе за последнюю неделю. Архивные данные за месяц целиком и за предыдущие месяцы, начиная с января 2011 года, Вы можете получить, выбрав интересующий диапазон дат из раскрывающегося списка и нажав кнопку "Ввод!".


*Определитесь, кто Вы:
робот инопланетянин человек

Внимание! Время в таблицах - всемирное. Для получения местного времени необходимо прибавить поправку, которая равна 2 ч.

Смотрите также архив погоды в соседних городах и на ближайших метеорологических станциях:

Погода в Коматидрааи (Южная Африка) (66 км)
Погода в Граскопе (Южная Африка) (76 км)
Погода в Граскоп-Скуле (Южная Африка) (78 км)
Погода на Базе ВВС Hoedspruit (Южная Африка) (89 км)
Погода в Хоэдспруите (Южная Африка) (89 км)
Погода в Мбомбеле (Южная Африка) (90 км)
Погода в Вувулане (Свазиленд) (100 км)
Погода в Майиване (Свазиленд) (102 км)
Погода в Линденбурге (Южная Африка) (114 км)
Погода в Линденбурге 2 (Южная Африка) (115 км)

Пояснения к столбцам:

Ветер - указаны скорость ветра в м/с - средняя за 10 мин, порывы в срок и между сроками (в фигурных скобках) и направление, откуда дует ветер: С - северный, СВ - северо-восточный, В - восточный, ЮВ - юго-восточный, Ю - южный, ЮЗ - юго-западный, З - западный, СЗ - северо-западный.
Видимость - горизонтальная дальность видимости в метрах или километрах. При видимости от 1 до 10 км при отсутствии осадков обычно наблюдается дымка, при ухудшении видимости до 1 км и менее - туман. В сухую погоду видимость может ухудшаться дымом, пылью или мглою.
Явления - указаны атмосферные явления, наблюдавшиеся в срок или в последний час перед сроком; фигурными скобками обозначены явления, наблюдавшиеся между сроками (за 1-3 часа до срока); квадратными скобками обозначены град или гололедные отложения с указанием их диаметра в мм.
Облачность - указаны через наклонную черту общая и нижняя облачность в баллах и высота нижней границы облаков в метрах; квадратными скобками обозначены формы облаков: Ci - перистые, Cs - перисто-слоистые, Cc - перисто-кучевые, Ac - высококучевые, As - высокослоистые, Sc - слоисто-кучевые, Ns - слоисто-дождевые, Cu - кучевые, Cb - кучево-дождевые. Подробнее классификацию облаков см. в Атласе облаков (PDF).
T - Температура воздуха - температура, измеренная на высоте 2 м над землей.
Td - Температура точки росы - температура, при понижении до которой содержащийся в воздухе водяной пар достигнет насыщения.
f - Относительная влажность воздуха - влажноcть воздуха, измеренная на высоте 2 м над землей.
Te - Эффективная температура - температура, которую ощущает одетый по сезону человек в тени. Характеристика душности погоды. При расчете учитывается влияние влажности воздуха и скорости ветра на теплоощущения человека.
Tes - Эффективная температура на солнце - температура, которую ощущает человек, с поправкой на солнечный нагрев. Характеристика знойности погоды. Зависит от высоты солнца над горизонтом, облачности и скорости ветра. Ночью, в пасмурную погоду, а также при ветре 12 м/с и более поправка равна нулю.
P - Атмосферное давление - приведенное к уровню моря атмосферное давление.
Po - Атмосферное давление - измеренное на уровне метеостанции атмосферное давление.
Tmin - Минимальная температура - минимум температуры воздуха на высоте 2 м над землей.
Tmax - Максимальная температура - максимум температуры воздуха на высоте 2 м над землей.
R - Количество осадков - Количество выпавших осадков за период времени, мм. При наведении курсора мыши на число - период времени, за который выпало указанное количество осадков.
R24 - Количество осадков - Количество выпавших осадков за 24 часа, мм.
S - Снежный покров - Высота снежного покрова, см. При наведении курсора мыши на число - состояние снежного покрова и степень покрытия местности в баллах.